Tracking 31027 objects as of 19-Jul-2025
HD Live streaming from Space Station
objects crossing your sky now

OBJECT C

Track OBJECT C now!
10-day predictions


NORAD ID: 49317
Int'l Code: 2021-091C
Perigee: 409.7 km
Apogee: 421.0 km
Inclination: 97.4 °
Period: 92.7 minutes
Semi major axis: 6786 km
RCS: Unknown
Launch date: October 14, 2021
Source: People's Republic of China (PRC)
Launch site: Taiyaun Space Center, China (TSC)
Your satellite tracking list
FENGYUN 1C DEB
Track 1 satellite(s)




NASA's NSSDC Master Catalog

Two Line Element Set (TLE):
1 49317U 21091C   25199.86652708  .00025377  00000-0  40864-3 0  9994
2 49317  97.4087  44.0765 0008346  96.2293 263.9910 15.52910019209586
Source of the keplerian elements: AFSPC